Location: Newark
(41.0400°S, 62.7845°W)
Time: 20:02:06
(UTC+00:00)

Tiros 1 - Pass Details

Date: 07 December 2021
Orbit: 630 x 663 km, 48.4° (Epoch: 20 January)

Event Time Altitude Azimuth Distance (km) Brightness Sun altitude
Exits shadow 07:39:41 - 355° (N) 2,806 10.0 -8.8°
Reaches altitude 10° 07:42:23 10° 15° (NNE) 2,083 9.5 -8.5°
Maximum altitude 07:45:03 15° 49° (NE) 1,782 9.5 -8.1°
Drops below altitude 10° 07:47:43 10° 83° (E) 2,090 10.5 -7.7°
Sets 07:51:00 0° 106° (ESE) 3,005 12.0 -7.2°
